Change the Weather History Date:

Monday, April 8, 2013

  Actual Average (KMTJ) Record (KMTJ)
Temperature  
Mean Temperature 56 °F 47 °F  
Max Temperature 67 °F 61 °F 73 °F (2012)
Min Temperature 44 °F 33 °F 21 °F (2003)
Degree Days  
Heating Degree Days 10 18  
Month to date heating degree days 152  
Since 1 July heating degree days 5608  
Cooling Degree Days 0 0  
Month to date cooling degree days 0  
Year to date cooling degree days 0  
Growing Degree Days 6 (Base 50)    
Moisture  
Dew Point 29 °F    
Average Humidity 46    
Maximum Humidity 87    
Minimum Humidity 19    
Precipitation  
Precipitation 0.05 in 0.03 in 0.30 in (2007)
Month to date precipitation 0.25  
Year to date precipitation 2.50  
Sea Level Pressure  
Sea Level Pressure 29.52 in    
Wind  
Wind Speed 8 mph (NE)    
Max Wind Speed 33 mph    
Max Gust Speed 54 mph    
Visibility 10 miles    
Events Rain    
T = Trace of Precipitation, MM = Missing Value Source: NWS Daily Summary

Daily Weather History Graph

Daily Weather History Graph

Search for Another Location

Airport or City:

Trip Planner

Search our weather history database for the weather conditions in past years. The results will help you decide how hot, cold, wet, or windy it might be!

Date:

Astronomy

Apr. 08, 2013 Rise Set
Actual Time 6:45 AM MDT 7:42 PM MDT
Civil Twilight 6:18 AM MDT 8:10 PM MDT
Nautical Twilight 5:46 AM MDT 8:42 PM MDT
Astronomical Twilight 5:13 AM MDT 9:15 PM MDT
Moon 5:36 AM MDT (4/8) 6:20 PM MDT (4/8)
Length of Visible Light 13h 51m
Length of Day
12h 57m
Waning Crescent, 3% of the Moon is Illuminated
Apr 8
Waning Crescent
Apr 10
New
Apr 18
First Quarter
Apr 25
Full
May 2
Last Quarter

Hourly Weather History & Observations

Time (MDT) Temp. Windchill Dew Point Humidity Pressure Visibility Wind Dir Wind Speed Gust Speed Precip Events Conditions
12:15 AM 52.2 °F - 23.9 °F 33% 29.70 in 10.0 mi NNE 4.6 mph - N/A   Scattered Clouds
12:35 AM 52.5 °F - 20.7 °F 29% 29.69 in 10.0 mi NNE 4.6 mph - N/A   Clear
12:55 AM 51.1 °F - 22.1 °F 32% 29.68 in 10.0 mi North 10.4 mph - N/A   Clear
1:15 AM 51.3 °F - 21.7 °F 31% 29.68 in 10.0 mi Calm Calm - N/A   Clear
1:35 AM 52.0 °F - 18.5 °F 27% 29.68 in 10.0 mi ENE 3.5 mph - N/A   Clear
1:55 AM 49.6 °F - 24.6 °F 38% 29.67 in 10.0 mi North 4.6 mph - N/A   Clear
2:15 AM 49.1 °F - 19.4 °F 31% 29.66 in 10.0 mi East 6.9 mph - N/A   Clear
2:35 AM 49.1 °F - 20.1 °F 32% 29.65 in 10.0 mi ENE 6.9 mph - N/A   Clear
2:55 AM 48.2 °F - 19.2 °F 32% 29.64 in 10.0 mi NE 5.8 mph - N/A   Clear
3:15 AM 47.5 °F - 20.1 °F 34% 29.64 in 10.0 mi NE 4.6 mph - N/A   Clear
3:35 AM 48.7 °F - 21.4 °F 34% 29.62 in 10.0 mi NNE 6.9 mph - N/A   Clear
3:55 AM 50.4 °F - 22.6 °F 34% 29.60 in 10.0 mi North 11.5 mph - N/A   Clear
4:15 AM 51.3 °F - 23.2 °F 33% 29.60 in 10.0 mi NNE 10.4 mph - N/A   Clear
4:35 AM 50.7 °F - 23.5 °F 35% 29.60 in 10.0 mi NNE 9.2 mph - N/A   Clear
4:55 AM 51.4 °F - 23.5 °F 34% 29.59 in 10.0 mi NNE 10.4 mph - N/A   Clear
5:15 AM 51.1 °F - 23.5 °F 34% 29.58 in 10.0 mi NNE 9.2 mph - N/A   Clear
5:35 AM 50.9 °F - 22.8 °F 33% 29.57 in 10.0 mi NE 9.2 mph - N/A   Clear
5:55 AM 51.4 °F - 20.8 °F 30% 29.57 in 10.0 mi NNE 3.5 mph - N/A   Clear
6:15 AM 52.5 °F - 21.4 °F 30% 29.56 in 10.0 mi NE 8.1 mph - N/A   Clear
6:35 AM 50.0 °F - 21.0 °F 32% 29.56 in 10.0 mi ENE 9.2 mph - N/A   Clear
6:55 AM 51.4 °F - 21.0 °F 30% 29.56 in 10.0 mi NE 5.8 mph - N/A   Clear
7:15 AM 50.4 °F - 21.0 °F 32% 29.57 in 10.0 mi ENE 10.4 mph - N/A   Clear
7:35 AM 50.0 °F - 21.2 °F 32% 29.56 in 10.0 mi ENE 6.9 mph - N/A   Clear
7:55 AM 50.2 °F - 21.4 °F 32% 29.56 in 10.0 mi North 9.2 mph - N/A   Clear
8:15 AM 53.1 °F - 21.6 °F 29% 29.56 in 10.0 mi North 6.9 mph - N/A   Clear
8:35 AM 53.6 °F - 21.4 °F 28% 29.55 in 10.0 mi ENE 5.8 mph - N/A   Scattered Clouds
8:55 AM 54.5 °F - 20.5 °F 27% 29.54 in 10.0 mi NE 5.8 mph - N/A   Clear
9:15 AM 57.0 °F - 21.6 °F 25% 29.53 in 10.0 mi NE 8.1 mph - N/A   Clear
9:35 AM 59.7 °F - 19.2 °F 21% 29.52 in 10.0 mi NE 9.2 mph - N/A   Clear
9:55 AM 61.9 °F - 21.0 °F 21% 29.51 in 10.0 mi ENE 9.2 mph - N/A   Clear
10:15 AM 62.1 °F - 22.3 °F 22% 29.51 in 10.0 mi ENE 6.9 mph - N/A   Clear
10:35 AM 62.8 °F - 22.3 °F 21% 29.50 in 10.0 mi ENE 6.9 mph - N/A   Clear
10:55 AM 63.9 °F - 21.9 °F 20% 29.49 in 10.0 mi ESE 4.6 mph - N/A   Scattered Clouds
11:15 AM 63.5 °F - 22.5 °F 21% 29.49 in 10.0 mi SW 5.8 mph - N/A   Mostly Cloudy
11:35 AM 66.4 °F - 22.8 °F 19% 29.47 in 10.0 mi SSW 15.0 mph 28.8 mph N/A   Mostly Cloudy
11:55 AM 67.1 °F - 23.4 °F 19% 29.45 in 10.0 mi SSW 17.3 mph 29.9 mph N/A   Clear
12:15 PM 66.7 °F - 23.2 °F 19% 29.44 in 10.0 mi SW 16.1 mph 23.0 mph N/A   Clear
12:35 PM 63.9 °F - 24.6 °F 23% 29.43 in 10.0 mi WSW 13.8 mph 18.4 mph N/A   Mostly Cloudy
12:55 PM 63.5 °F - 25.9 °F 24% 29.42 in 10.0 mi WSW 17.3 mph 26.5 mph N/A   Overcast
1:15 PM 61.5 °F - 26.1 °F 26% 29.42 in 5.0 mi WSW 29.9 mph 54.1 mph N/A   Haze
1:35 PM 57.4 °F - 30.2 °F 36% 29.44 in 10.0 mi West 17.3 mph 27.6 mph N/A   Mostly Cloudy
1:55 PM 56.8 °F - 29.5 °F 35% 29.47 in 2.0 mi South 33.4 mph 44.9 mph N/A   Haze
2:15 PM 53.6 °F - 33.8 °F 47% 29.45 in 7.0 mi WSW 15.0 mph 39.1 mph N/A Rain Light Rain
2:35 PM 58.5 °F - 32.2 °F 37% 29.42 in 10.0 mi South 5.8 mph 16.1 mph N/A   Mostly Cloudy
2:55 PM 60.8 °F - 29.5 °F 31% 29.41 in 10.0 mi SW 5.8 mph - N/A   Scattered Clouds
3:15 PM 59.7 °F - 28.2 °F 30% 29.40 in 10.0 mi SSE 11.5 mph 21.9 mph N/A   Mostly Cloudy
3:35 PM 57.7 °F - 33.1 °F 39% 29.41 in 10.0 mi South 4.6 mph 16.1 mph N/A   Overcast
3:55 PM 55.9 °F - 35.8 °F 47% 29.41 in 10.0 mi WSW 18.4 mph 29.9 mph N/A   Overcast
4:15 PM 47.7 °F - 41.9 °F 80% 29.43 in 7.0 mi WSW 23.0 mph 34.5 mph N/A Rain Light Rain
4:35 PM 48.0 °F - 42.1 °F 80% 29.43 in 10.0 mi NW 3.5 mph - N/A Rain Light Rain
4:55 PM 49.1 °F - 41.0 °F 74% 29.45 in 5.0 mi South 4.6 mph - N/A Rain Rain
5:15 PM 47.5 °F - 43.5 °F 86% 29.44 in 7.0 mi Calm Calm - 0.02 in Rain Light Rain
5:35 PM 48.2 °F - 43.9 °F 85% 29.43 in 10.0 mi NNE 8.1 mph - 0.03 in Rain Light Rain
5:55 PM 47.5 °F - 43.7 °F 87% 29.45 in 7.0 mi NE 6.9 mph - 0.03 in Rain Rain
6:15 PM 47.5 °F - 43.5 °F 86% 29.46 in 10.0 mi NE 3.5 mph - 0.01 in Rain Light Rain
6:35 PM 46.9 °F - 43.3 °F 87% 29.46 in 10.0 mi NE 8.1 mph - 0.02 in Rain Light Rain
6:55 PM 46.4 °F 42.4 °F 42.8 °F 87% 29.45 in 10.0 mi NNE 8.1 mph - 0.02 in Rain Light Rain
7:15 PM 46.6 °F - 42.4 °F 85% 29.46 in 10.0 mi NNE 10.4 mph - N/A Rain Light Rain
7:35 PM 46.4 °F 41.1 °F 42.1 °F 85% 29.45 in 10.0 mi NNE 11.5 mph - N/A Rain Light Rain
7:55 PM 46.6 °F - 41.4 °F 82% 29.47 in 10.0 mi NNE 8.1 mph - N/A   Mostly Cloudy
8:15 PM 46.4 °F 40.7 °F 41.2 °F 82% 29.48 in 10.0 mi NE 12.7 mph 23.0 mph N/A Rain Light Rain
8:35 PM 46.6 °F - 41.0 °F 81% 29.51 in 10.0 mi SSW 9.2 mph - N/A Rain Rain
8:55 PM 46.0 °F 41.4 °F 39.6 °F 78% 29.54 in 10.0 mi SW 9.2 mph - N/A   Overcast
9:15 PM 45.7 °F 42.7 °F 35.4 °F 67% 29.50 in 10.0 mi NNE 5.8 mph - N/A   Overcast
9:35 PM 46.2 °F 42.2 °F 35.4 °F 66% 29.51 in 10.0 mi ESE 8.1 mph - N/A   Overcast
9:55 PM 46.0 °F - 35.1 °F 66% 29.50 in 10.0 mi Calm Calm - N/A   Overcast
10:15 PM 44.8 °F 39.9 °F 37.4 °F 75% 29.51 in 10.0 mi NNE 9.2 mph - N/A   Scattered Clouds
10:35 PM 44.8 °F 41.0 °F 37.4 °F 75% 29.51 in 10.0 mi NE 6.9 mph - N/A   Mostly Cloudy
10:55 PM 44.6 °F 43.1 °F 37.6 °F 76% 29.52 in 10.0 mi NE 3.5 mph - N/A   Overcast
11:15 PM 44.6 °F 40.2 °F 38.1 °F 78% 29.52 in 10.0 mi ENE 8.1 mph - N/A   Overcast
11:35 PM 44.8 °F 39.9 °F 37.8 °F 76% 29.51 in 10.0 mi ENE 9.2 mph - N/A   Overcast
11:55 PM 45.3 °F 39.7 °F 37.9 °F 75% 29.52 in 10.0 mi East 11.5 mph - N/A   Scattered Clouds